TimeMST,TemperatureF,Dew PointF,Humidity,Sea Level PressureIn,VisibilityMPH,Wind Direction,Wind SpeedMPH,Gust SpeedMPH,PrecipitationIn,Events,Conditions,WindDirDegrees,DateUTC
12:53 AM,3.0,-0.0,87,30.29,7.0,SW,5.8,-,N/A,,Clear,230,2013-01-01 07:53:00
1:53 AM,6.1,3.0,87,30.29,7.0,Calm,Calm,-,N/A,,Clear,0,2013-01-01 08:53:00
2:53 AM,3.9,1.0,88,30.30,7.0,West,4.6,-,N/A,,Clear,280,2013-01-01 09:53:00
3:53 AM,5.0,1.0,84,30.32,8.0,WSW,5.8,-,N/A,,Clear,250,2013-01-01 10:53:00
4:53 AM,7.0,3.9,87,30.32,9.0,SW,8.1,-,N/A,,Clear,230,2013-01-01 11:53:00
5:53 AM,3.9,1.0,88,30.33,8.0,SW,9.2,-,N/A,,Clear,230,2013-01-01 12:53:00
6:53 AM,6.1,1.9,83,30.35,9.0,WSW,10.4,-,N/A,,Clear,240,2013-01-01 13:53:00
7:53 AM,7.0,3.0,84,30.36,8.0,WSW,11.5,-,N/A,,Clear,250,2013-01-01 14:53:00
8:53 AM,8.1,3.9,83,30.37,9.0,West,6.9,-,N/A,,Clear,260,2013-01-01 15:53:00
9:53 AM,15.1,10.9,84,30.35,7.0,SSW,3.5,-,N/A,,Clear,200,2013-01-01 16:53:00
10:53 AM,23.0,15.1,72,30.30,10.0,West,9.2,-,N/A,,Clear,260,2013-01-01 17:53:00
11:53 AM,27.0,18.0,69,30.25,10.0,West,11.5,-,N/A,,Clear,270,2013-01-01 18:53:00
12:53 PM,30.0,19.9,66,30.22,10.0,West,11.5,-,N/A,,Clear,270,2013-01-01 19:53:00
1:53 PM,30.0,19.9,66,30.20,10.0,West,11.5,-,N/A,,Clear,270,2013-01-01 20:53:00
2:53 PM,28.9,21.0,72,30.19,10.0,West,10.4,-,N/A,,Clear,270,2013-01-01 21:53:00
3:53 PM,27.0,19.0,72,30.20,10.0,West,9.2,-,N/A,,Clear,270,2013-01-01 22:53:00
4:53 PM,19.9,14.0,78,30.22,10.0,West,11.5,-,N/A,,Clear,260,2013-01-01 23:53:00
5:53 PM,17.1,10.9,77,30.23,10.0,West,6.9,-,N/A,,Clear,260,2013-01-02 00:53:00
6:53 PM,14.0,10.0,84,30.25,10.0,WSW,6.9,-,N/A,,Scattered Clouds,240,2013-01-02 01:53:00
7:53 PM,23.0,16.0,74,30.22,10.0,WSW,9.2,-,N/A,,Overcast,240,2013-01-02 02:53:00
8:53 PM,28.0,23.0,81,30.20,4.0,WNW,19.6,-,0.00,Snow,Light Snow,290,2013-01-02 03:53:00
9:01 PM,26.6,24.8,93,30.03,1.8,West,18.4,-,0.00,Snow,Light Snow,280,2013-01-02 04:01:00
9:16 PM,28.4,24.8,86,30.04,1.0,West,20.7,-,N/A,Snow,Light Snow,280,2013-01-02 04:16:00
9:29 PM,28.4,24.8,86,30.04,1.2,West,18.4,-,0.00,Snow,Light Snow,280,2013-01-02 04:29:00
9:42 PM,28.4,24.8,86,30.04,2.5,WNW,16.1,-,0.00,Snow,Light Snow,290,2013-01-02 04:42:00
9:49 PM,28.4,24.8,86,30.04,4.0,WNW,17.3,-,0.00,,Overcast,290,2013-01-02 04:49:00
9:53 PM,28.9,25.0,85,30.20,4.0,WNW,15.0,-,0.00,,Overcast,290,2013-01-02 04:53:00
10:53 PM,28.9,25.0,85,30.19,7.0,NW,18.4,24.2,0.00,,Overcast,310,2013-01-02 05:53:00
11:53 PM,28.9,23.0,78,30.20,10.0,NW,18.4,-,N/A,,Overcast,310,2013-01-02 06:53:00